Home   Weather   Parma   Past weeks

Flag for Italy Past Weather in Parma, Italy — Yesterday and Last 2 Weeks

Now
70 °F

Passing clouds.


Feels Like: 70 °F
Forecast: 51 / 70 °F
Wind: 10 mph from East

Location: Parma

Current Time: Sep 25, 2017 at 5:29:12 pm

Latest Report: Sep 25, 2017 at 3:50 pm


Visibility: N/A

Pressure: 30.09 "Hg

Humidity: 53%

Dew Point: 52 °F

Location of ParmaLocation

Past Weather in Parma — Graph

°F

Parma Temperature Yesterday

Maximum temperature yesterday: 72 °F (at 3:50 pm)
Minimum temperature yesterday: 61 °F (at 7:00 am)
Average temperature yesterday: 66 °F

High & Low Weather Summary for the Past Weeks

 TemperatureHumidityPressure
High79 °F (Sep 14, 3:50 pm)100% (Sep 10, 6:50 pm)30.18 "Hg (Sep 10, 6:50 pm)
Low48 °F (Sep 20, 7:00 am)27% (Sep 20, 4:50 pm)29.56 "Hg (Sep 11, 4:50 pm)
Average64 °F71%29.94 "Hg
* Reported Sep 10 3:50 pm — Sep 25 3:50 pm, Parma. Weather by CustomWeather, © 2017

Note: Actual official high and low records may vary slightly from our data, if they occured in-between our weather recording intervals... More about our weather records

Advertising

Parma Weather History for the Previous 24 Hours

Scroll right to see more
 ConditionsComfort  
Time TempWeatherWind HumidityBarometerVisibility
3:50 pm
Mon, Sep 25
70 °FPassing clouds.10 mph53%30.09 "HgN/A
2:50 pm70 °FSunny.10 mph53%30.09 "Hg10 mi
1:50 pm70 °FSunny.10 mph53%30.12 "Hg10 mi
12:50 pm68 °FPassing clouds.8 mph56%30.12 "HgN/A
11:50 am68 °FSunny.8 mph60%30.12 "Hg10 mi
10:50 am68 °FSunny.5 mph56%30.12 "Hg10 mi
9:50 am64 °FSunny.3 mph64%30.12 "Hg10 mi
8:50 am57 °FSunny.1 mph82%30.12 "Hg10 mi
7:50 am52 °FSunny.2 mph88%30.09 "Hg10 mi
7:00 am54 °FClear.3 mph88%30.09 "Hg10 mi
10:50 pm
Sun, Sep 24
70 °FClear.8 mph60%30.12 "Hg10 mi
9:50 pm61 °FClear.6 mph83%30.12 "Hg10 mi
8:50 pm63 °FClear.8 mph73%30.12 "Hg10 mi
7:50 pm66 °FClear.6 mph73%30.09 "Hg10 mi
6:50 pm66 °FSunny.9 mph68%30.09 "Hg10 mi
5:50 pm68 °FSunny.9 mph69%30.07 "Hg10 mi
Weather by CustomWeather, © 2017

See weather overviewHow to use our weather pages